Back to catalog

COSMOS 2159

AliveNavigationPO
NORAD 21730·PAYLOAD·🇷🇺 Russia

Launched Sep 28, 1991 from Plesetsk Cosmodrome

Loading…

Next Passes (next 24 hours)

TLE

FreshSource: Space-Track

Epoch: Sep 14, 2026, 08:18 UTC

1 21730U 91068C   26257.34612501  .00000005  00000-0 -32039-4 0  9998
2 21730  82.5817 223.0824 0015042  74.2480  92.8406 12.66048676615517

Track COSMOS 2159 in real time with AllMySat

Download on the App Store